Location: Unspecified
(49.2170°N, 0.0000°E)
Time: 11:20:24
(UTC+00:00)

A-11 Canister half - Pass Details

Date: 21 June 2019
Orbit: 1526 x 1683 km, 47.3° (Epoch: 16 July)

Event Time Altitude Azimuth Distance (km) Brightness Sun altitude
Rises 05:09:26 0° 231° (SW) 4,738 10.9 9.5°
Reaches altitude 10° 05:12:35 10° 227° (SW) 3,738 10.5 10.0°
Maximum altitude 05:21:40 56° 153° (SSE) 1,779 9.6 11.4°
Drops below altitude 10° 05:30:38 10° 78° (ENE) 3,696 13.5 12.7°
Sets 05:33:44 0° 75° (ENE) 4,683 13.6 13.2°
